Location: Grandview
(34.8900°N, 117.1058°W)
Time: 02:39:35
(UTC-07:00)

ISS - Pass Details

Date: 16 October 2017
Orbit: 400 x 408 km, 51.6° (Epoch: 24 October)

Event Time Altitude Azimuth Distance (km) Brightness Sun altitude
Rises 19:25:14 0° 303° (WNW) 2,320 1.0 -15.8°
Reaches altitude 10° 19:27:26 10° 293° (WNW) 1,459 0.0 -16.3°
Maximum altitude 19:30:24 32° 228° (SW) 712 -2.2 -16.9°
Enters shadow 19:33:00 12° 166° (SSE) 1,321 -1.4 -17.4°
